Location: Frizzleburg
(41.0764°N, 80.4548°W)
Time: 20:59:52
(UTC+00:00)

Cosmos 2082 - Pass Details

Date: 17 November 2019
Orbit: 836 x 854 km, 71.0° (Epoch: 09 December)

Event Time Altitude Azimuth Distance (km) Brightness Sun altitude
Rises 23:57:58 0° 331° (NNW) 3,392 7.1 -21.8°
Reaches altitude 10° 00:00:28 10° 327° (NNW) 2,454 6.4 -22.2°
Maximum altitude 00:05:54 51° 252° (WSW) 1,039 4.5 -23.2°
Drops below altitude 10° 00:11:18 10° 178° (S) 2,442 6.1 -24.3°
Sets 00:13:47 0° 173° (S) 3,374 6.8 -24.7°
